LINCON Weather Reports


Display with metric or nautical units.
time (UTC)temp
F
wind
direction
speed
MPH
gust
MPH
rain 1hr
in
rain 24hr
in
rain mn
in
humidity
%
barometer
mb
20210727012403 64 32 18.0 29.0 0.00 0.00 0.00 74 1017.5
20210727011904 65 33 17.0 29.0 0.00 0.00 0.00 74 1018.0
20210727011403 65 54 18.0 29.0 0.00 0.00 0.00 74 1018.0
20210727010903 65 23 15.0 29.0 0.00 0.00 0.00 74 1018.0
20210727010403 64 25 16.0 29.0 0.00 0.00 0.00 74 1017.9
20210727005903 65 36 19.0 29.0 0.00 0.00 0.00 73 1018.0
20210727005403 65 36 18.0 27.0 0.00 0.00 0.00 73 1017.9
20210727004906 65 50 17.0 27.0 0.00 0.00 0.00 72 1018.0
20210727004403 65 47 10.0 27.0 0.00 0.00 0.00 73 1017.9
20210727003903 65 44 15.0 27.0 0.00 0.00 0.00 72 1017.9
20210727003404 65 47 17.0 30.0 0.00 0.00 0.00 73 1018.0
20210727002903 65 39 14.0 30.0 0.00 0.00 0.00 73 1018.0
20210727002403 65 32 18.0 30.0 0.00 0.00 0.00 72 1017.9
20210727001903 65 25 17.0 29.0 0.00 0.00 0.00 73 1017.8
20210727001403 65 50 18.0 29.0 0.00 0.00 0.00 72 1017.7
20210727000903 65 64 18.0 28.0 0.00 0.00 0.00 72 1017.8
20210727000404 65 21 18.0 28.0 0.00 0.00 0.00 72 1017.8
20210726235903 65 15 13.0 28.0 0.00 0.00 0.00 73 1017.8
20210726235403 65 37 13.0 28.0 0.00 0.00 0.00 74 1017.8
20210726234403 64 357 14.0 34.0 0.00 0.00 0.00 74 1017.7
20210726233904 64 5 20.0 34.0 0.00 0.00 0.00 74 1017.8
20210726233403 64 14 22.0 32.0 0.00 0.00 0.00 74 1017.8
20210726232903 64 35 22.0 32.0 0.00 0.00 0.00 74 1017.8
20210726232403 64 357 17.0 32.0 0.00 0.00 0.00 73 1017.8
20210726231903 65 9 15.0 29.0 0.00 0.00 0.00 73 1017.7
20210726231403 64 19 14.0 29.0 0.00 0.00 0.00 75 1017.7
20210726230903 64 19 10.0 32.0 0.00 0.00 0.00 75 1017.8
20210726230403 64 8 10.0 32.0 0.00 0.00 0.00 76 1017.8
20210726225903 64 15 14.0 32.0 0.00 0.00 0.00 77 1017.8
20210726225403 63 15 19.0 33.0 0.00 0.00 0.00 77 1017.8
20210726224903 63 16 17.0 33.0 0.00 0.00 0.00 77 1017.8
20210726224403 64 2 10.0 33.0 0.00 0.00 0.00 77 1017.9
20210726223903 64 25 21.0 31.0 0.00 0.00 0.00 77 1017.8
20210726223403 64 44 18.0 28.0 0.00 0.00 0.00 77 1017.9
20210726222903 64 16 19.0 28.0 0.00 0.00 0.00 77 1018.0
20210726222404 64 30 17.0 27.0 0.00 0.00 0.00 77 1017.9
20210726221903 63 28 12.0 27.0 0.00 0.00 0.00 78 1018.0
20210726221403 63 22 19.0 27.0 0.00 0.00 0.00 78 1018.0
20210726220904 63 15 16.0 27.0 0.00 0.00 0.00 78 1018.0
20210726220404 63 35 19.0 29.0 0.00 0.00 0.00 78 1018.1
20210726215903 63 16 17.0 29.0 0.00 0.00 0.00 79 1018.1
20210726215403 63 354 16.0 29.0 0.00 0.00 0.00 79 1018.1
20210726214903 63 15 16.0 28.0 0.00 0.00 0.00 79 1018.0
20210726214403 62 26 13.0 30.0 0.00 0.00 0.00 80 1018.1
20210726213903 62 16 15.0 30.0 0.00 0.00 0.00 81 1018.1
20210726213403 62 357 10.0 30.0 0.00 0.00 0.00 81 1018.0
20210726212904 61 11 12.0 32.0 0.00 0.00 0.00 81 1018.0
20210726212405 61 39 11.0 32.0 0.00 0.00 0.00 83 1018.0
20210726211404 60 16 17.0 30.0 0.00 0.00 0.00 85 1017.9
20210726210904 60 26 20.0 30.0 0.00 0.00 0.00 86 1017.9
20210726205404 59 12 20.0 31.0 0.00 0.00 0.00 87 1017.6
20210726204903 59 7 21.0 31.0 0.00 0.00 0.00 87 1017.6
20210726204403 59 5 18.0 31.0 0.00 0.00 0.00 87 1017.7
20210726203905 59 0 19.0 30.0 0.00 0.00 0.00 88 1017.7
20210726203403 59 11 17.0 32.0 0.00 0.00 0.00 88 1017.8
20210726202903 59 21 21.0 32.0 0.00 0.00 0.00 88 1017.7
20210726202403 59 21 22.0 32.0 0.00 0.00 0.00 88 1017.7
20210726201903 59 21 20.0 27.0 0.00 0.00 0.00 87 1017.7
20210726201403 59 354 14.0 28.0 0.00 0.00 0.00 87 1017.8
20210726200903 59 30 8.0 28.0 0.00 0.00 0.00 86 1017.9
20210726200403 59 26 8.0 28.0 0.00 0.00 0.00 86 1017.8
20210726195903 60 12 17.0 32.0 0.00 0.00 0.00 85 1018.0
20210726195403 60 18 18.0 32.0 0.00 0.00 0.00 84 1018.0
20210726194903 60 0 21.0 32.0 0.00 0.00 0.00 83 1018.1
20210726194403 61 14 20.0 30.0 0.00 0.00 0.00 81 1018.1
20210726193903 61 22 20.0 31.0 0.00 0.00 0.00 78 1018.2
20210726193405 62 21 19.0 31.0 0.00 0.00 0.00 78 1018.6
20210726192903 62 15 15.0 31.0 0.00 0.00 0.00 79 1018.7
20210726192404 62 12 19.0 27.0 0.00 0.00 0.00 79 1018.7
20210726191903 62 21 15.0 33.0 0.00 0.00 0.00 80 1018.7
20210726191403 62 19 14.0 33.0 0.00 0.00 0.00 80 1018.6
20210726190904 62 29 16.0 33.0 0.00 0.00 0.00 81 1018.7
20210726190405 62 44 24.0 29.0 0.00 0.00 0.00 81 1018.6
20210726185903 62 7 15.0 33.0 0.00 0.00 0.00 82 1018.6
20210726185403 62 357 12.0 33.0 0.00 0.00 0.00 82 1018.5
20210726184903 61 11 16.0 33.0 0.00 0.00 0.00 82 1018.5
20210726184403 61 14 23.0 34.0 0.00 0.00 0.00 82 1018.5
20210726183903 61 21 23.0 34.0 0.00 0.00 0.00 83 1018.6
20210726183403 61 16 18.0 34.0 0.00 0.00 0.00 83 1018.6
20210726182903 61 18 19.0 31.0 0.00 0.00 0.00 83 1018.6
20210726182403 61 357 18.0 32.0 0.00 0.00 0.00 82 1018.6
20210726181903 61 19 20.0 32.0 0.00 0.00 0.00 83 1018.6
20210726181403 61 18 14.0 32.0 0.00 0.00 0.00 83 1018.6
20210726180903 61 357 18.0 34.0 0.00 0.00 0.00 83 1018.5
20210726180403 61 12 18.0 34.0 0.00 0.00 0.00 82 1018.5
20210726175903 61 22 18.0 34.0 0.00 0.00 0.00 82 1018.4
20210726175403 61 5 22.0 33.0 0.00 0.00 0.00 81 1018.5
20210726174903 61 19 20.0 33.0 0.00 0.00 0.00 81 1018.4
20210726174403 61 14 19.0 33.0 0.00 0.00 0.00 80 1018.4
20210726173904 61 26 18.0 29.0 0.00 0.00 0.00 80 1018.4
20210726173403 61 29 17.0 27.0 0.00 0.00 0.00 80 1018.4
20210726172903 61 15 16.0 27.0 0.00 0.00 0.00 79 1018.5
20210726172403 61 29 15.0 27.0 0.00 0.00 0.00 78 1018.5
20210726171903 61 357 14.0 26.0 0.00 0.00 0.00 78 1018.5
20210726171403 61 357 14.0 26.0 0.00 0.00 0.00 79 1018.5
20210726170903 61 25 14.0 26.0 0.00 0.00 0.00 78 1018.4
20210726170403 62 357 13.0 25.0 0.00 0.00 0.00 78 1018.5
20210726165903 62 30 2.0 25.0 0.00 0.00 0.00 79 1018.5
20210726165403 62 18 15.0 25.0 0.00 0.00 0.00 79 1018.5
20210726164903 61 12 12.0 23.0 0.00 0.00 0.00 79 1018.6
20210726164403 61 8 12.0 21.0 0.00 0.00 0.00 79 1018.6
20210726163903 61 357 9.0 21.0 0.00 0.00 0.00 79 1018.6
20210726163403 61 32 10.0 21.0 0.00 0.00 0.00 79 1018.7
20210726162903 61 12 11.0 21.0 0.00 0.00 0.00 78 1018.6
20210726162403 62 46 11.0 18.0 0.00 0.00 0.00 79 1018.5
20210726161903 62 21 12.0 20.0 0.00 0.00 0.00 79 1018.5
20210726161403 62 26 9.0 20.0 0.00 0.00 0.00 79 1018.5
20210726160903 62 18 10.0 20.0 0.00 0.00 0.00 80 1018.6
20210726160403 62 357 5.0 20.0 0.00 0.00 0.00 80 1018.6
20210726155903 62 44 10.0 20.0 0.00 0.00 0.00 80 1018.5
20210726155403 62 12 13.0 20.0 0.00 0.00 0.00 81 1018.6
20210726154903 62 40 4.0 17.0 0.00 0.00 0.00 83 1018.5
20210726154403 62 22 3.0 17.0 0.00 0.00 0.00 84 1018.6
20210726153903 61 39 5.0 17.0 0.00 0.00 0.00 85 1018.6
20210726153404 61 44 11.0 18.0 0.00 0.00 0.00 85 1018.5
20210726152903 61 29 10.0 18.0 0.00 0.00 0.00 86 1018.6
20210726152403 61 25 11.0 18.0 0.00 0.00 0.00 87 1018.6
20210726151903 60 39 10.0 15.0 0.00 0.00 0.00 87 1018.7
20210726151403 60 25 11.0 12.0 0.00 0.00 0.00 89 1018.7
20210726150903 60 22 5.0 10.0 0.00 0.00 0.00 89 1018.7
20210726150403 60 0 4.0 4.0 0.00 0.00 0.00 90 1018.7
20210726145903 59 0 0.0 0.0 0.00 0.00 0.00 90 1018.8
20210726145403 59 0 0.0 0.0 0.00 0.00 0.00 90 1018.8
20210726144903 59 0 0.0 0.0 0.00 0.00 0.00 91 1018.8
20210726144403 59 0 0.0 0.0 0.00 0.00 0.00 91 1018.8
20210726143903 59 0 0.0 0.0 0.00 0.00 0.00 91 1018.3
20210726143405 59 0 0.0 0.0 0.00 0.00 0.00 91 1018.4
20210726142904 59 0 0.0 0.0 0.00 0.00 0.00 91 1018.4
20210726142403 58 0 0.0 0.0 0.00 0.00 0.00 91 1018.4
20210726141903 58 0 0.0 0.0 0.00 0.00 0.00 91 1018.3
20210726141403 58 0 0.0 0.0 0.00 0.00 0.00 92 1018.3
20210726140903 58 0 0.0 0.0 0.00 0.00 0.00 92 1018.3
20210726140403 58 0 0.0 0.0 0.00 0.00 0.00 92 1018.4
20210726135903 58 0 0.0 0.0 0.00 0.00 0.00 91 1018.3
20210726135403 58 0 0.0 0.0 0.00 0.00 0.00 91 1018.4
20210726134906 58 0 0.0 0.0 0.00 0.00 0.00 91 1018.3
20210726134403 58 0 0.0 0.0 0.00 0.00 0.00 91 1018.3
20210726133903 58 0 0.0 0.0 0.00 0.00 0.00 91 1018.2
20210726133403 58 0 0.0 0.0 0.00 0.00 0.00 91 1018.2
20210726132903 58 0 0.0 0.0 0.00 0.00 0.00 90 1018.2
20210726132403 58 0 0.0 0.0 0.00 0.00 0.00 90 1018.7
20210726131903 58 0 0.0 0.0 0.00 0.00 0.00 90 1018.5
20210726131404 58 0 0.0 0.0 0.00 0.00 0.00 90 1018.5
20210726130903 58 0 0.0 0.0 0.00 0.00 0.00 90 1018.6
20210726130403 58 0 0.0 0.0 0.00 0.00 0.00 90 1018.7
20210726125903 58 0 0.0 0.0 0.00 0.00 0.00 90 1018.8
20210726125403 58 0 0.0 0.0 0.00 0.00 0.00 91 1018.6
20210726124903 58 0 0.0 0.0 0.00 0.00 0.00 91 1018.6
20210726124403 58 0 0.0 0.0 0.00 0.00 0.00 91 1018.7
20210726123903 58 0 0.0 0.0 0.00 0.00 0.00 91 1018.7
20210726123403 57 0 0.0 0.0 0.00 0.00 0.00 91 1018.7
20210726122903 57 0 0.0 0.0 0.00 0.00 0.00 90 1018.8
20210726122403 57 0 0.0 0.0 0.00 0.00 0.00 90 1018.6
20210726121903 58 0 0.0 0.0 0.00 0.00 0.00 90 1018.6
20210726121403 58 0 0.0 0.0 0.00 0.00 0.00 90 1018.6
20210726120903 58 0 0.0 0.0 0.00 0.00 0.00 90 1018.5
20210726120403 58 0 0.0 0.0 0.00 0.00 0.00 89 1018.6
20210726115903 58 0 0.0 0.0 0.00 0.00 0.00 89 1018.7
20210726115403 58 0 0.0 0.0 0.00 0.00 0.00 90 1018.6
20210726114903 58 0 0.0 8.0 0.00 0.00 0.00 90 1018.5
20210726114403 58 0 0.0 8.0 0.00 0.00 0.00 89 1018.5
20210726113903 58 88 0.0 8.0 0.00 0.00 0.00 90 1018.5
20210726113403 58 54 0.0 5.0 0.00 0.00 0.00 90 1018.5
20210726112907 58 0 0.0 0.0 0.00 0.00 0.00 90 1018.5
20210726112403 58 0 0.0 0.0 0.00 0.00 0.00 90 1018.5
20210726111903 58 0 0.0 0.0 0.00 0.00 0.00 90 1018.6
20210726111403 58 0 0.0 0.0 0.00 0.00 0.00 90 1018.6
20210726110903 58 0 0.0 0.0 0.00 0.00 0.00 90 1018.6
20210726110403 58 0 0.0 0.0 0.00 0.00 0.00 89 1018.7
20210726105904 58 0 0.0 0.0 0.00 0.00 0.00 90 1018.6
20210726105403 58 0 0.0 0.0 0.00 0.00 0.00 89 1018.7
20210726104904 58 0 0.0 0.0 0.00 0.00 0.00 89 1018.7
20210726104403 58 0 0.0 0.0 0.00 0.00 0.00 89 1018.7
20210726103903 58 0 0.0 0.0 0.00 0.00 0.00 89 1018.7
20210726103403 58 0 0.0 0.0 0.00 0.00 0.00 89 1018.7
20210726102903 58 0 0.0 0.0 0.00 0.00 0.00 89 1018.6
20210726102403 59 0 0.0 0.0 0.00 0.00 0.00 89 1018.6
20210726101903 59 0 0.0 0.0 0.00 0.00 0.00 89 1018.6
20210726101403 59 0 0.0 11.0 0.00 0.00 0.00 89 1018.5
20210726100903 59 44 0.0 11.0 0.00 0.00 0.00 89 1018.4
20210726100403 58 39 0.0 11.0 0.00 0.00 0.00 89 1018.4
20210726095903 58 53 4.0 8.0 0.00 0.00 0.00 89 1018.5
20210726095403 58 50 4.0 8.0 0.00 0.00 0.00 90 1018.4
20210726094903 58 42 0.0 8.0 0.00 0.00 0.00 90 1018.5
20210726094403 58 50 0.0 8.0 0.00 0.00 0.00 90 1018.5
20210726093903 58 0 0.0 7.0 0.00 0.00 0.00 90 1018.4
20210726093403 58 58 0.0 12.0 0.00 0.00 0.00 90 1018.5
20210726092903 58 33 3.0 12.0 0.00 0.00 0.00 90 1018.1
20210726092403 58 46 5.0 12.0 0.00 0.00 0.00 89 1018.1
20210726091903 58 357 3.0 13.0 0.00 0.00 0.00 89 1018.1
20210726091403 58 58 4.0 13.0 0.00 0.00 0.00 89 1018.1
20210726090903 58 14 7.0 13.0 0.00 0.00 0.00 89 1018.2
20210726090403 58 26 10.0 11.0 0.00 0.00 0.00 89 1018.3
20210726085903 58 51 3.0 15.0 0.00 0.00 0.00 88 1018.3
20210726085403 58 40 2.0 15.0 0.00 0.00 0.00 88 1018.3
20210726084903 58 357 10.0 15.0 0.00 0.00 0.00 88 1018.4
20210726084403 58 21 10.0 14.0 0.00 0.00 0.00 87 1018.5
20210726083903 58 14 7.0 14.0 0.00 0.00 0.00 87 1018.6
20210726083403 59 18 6.0 16.0 0.00 0.00 0.00 86 1018.6
20210726082903 59 32 3.0 16.0 0.00 0.00 0.00 85 1018.7
20210726082403 59 53 10.0 16.0 0.00 0.00 0.00 84 1018.7
20210726081909 59 23 10.0 20.0 0.00 0.00 0.00 84 1018.7
20210726080903 60 23 10.0 20.0 0.00 0.00 0.00 81 1018.7
20210726080403 61 16 16.0 19.0 0.00 0.00 0.00 81 1018.9
20210726075903 61 25 14.0 21.0 0.00 0.00 0.00 81 1019.2
20210726075403 61 327 11.0 21.0 0.00 0.00 0.00 81 1019.2
20210726074902 61 11 13.0 21.0 0.00 0.00 0.00 81 1019.2
20210726074402 61 357 14.0 21.0 0.00 0.00 0.00 81 1019.2
20210726073903 61 50 11.0 19.0 0.00 0.00 0.00 81 1019.2
20210726073404 61 2 10.0 19.0 0.00 0.00 0.00 81 1019.2
20210726072903 61 49 11.0 22.0 0.00 0.00 0.00 81 1019.2
20210726072402 61 11 9.0 22.0 0.00 0.00 0.00 80 1019.2
20210726071902 61 23 12.0 22.0 0.00 0.00 0.00 80 1019.1
20210726071403 61 28 6.0 23.0 0.00 0.00 0.00 80 1019.1
20210726070902 61 42 12.0 23.0 0.00 0.00 0.00 80 1019.1
20210726070402 62 18 15.0 23.0 0.00 0.00 0.00 79 1019.0
20210726065902 62 26 14.0 23.0 0.00 0.00 0.00 80 1019.1
20210726065402 62 14 15.0 23.0 0.00 0.00 0.00 80 1019.1
20210726064905 62 5 15.0 20.0 0.00 0.00 0.00 80 1019.1
20210726064403 62 7 14.0 19.0 0.00 0.00 0.00 80 1019.1
20210726063402 62 21 10.0 15.0 0.00 0.00 0.00 81 1019.0
20210726062902 62 26 12.0 15.0 0.00 0.00 0.00 81 1019.1
20210726062402 62 16 8.0 15.0 0.00 0.00 0.00 81 1019.1
20210726061904 62 8 5.0 15.0 0.00 0.00 0.00 81 1019.0
20210726061403 62 33 7.0 19.0 0.00 0.00 0.00 81 1019.0
20210726060902 62 26 12.0 19.0 0.00 0.00 0.00 81 1019.1
20210726060402 62 19 6.0 19.0 0.00 0.00 0.00 81 1019.1
20210726055902 62 14 14.0 17.0 0.00 0.00 0.00 81 1019.0
20210726055402 62 29 10.0 20.0 0.00 0.00 0.00 81 1019.0
20210726054902 62 5 13.0 20.0 0.00 0.00 0.00 81 1019.0
20210726054402 62 4 11.0 20.0 0.00 0.00 0.00 81 1019.0
20210726053902 62 15 12.0 17.0 0.00 0.00 0.00 82 1019.1
20210726053403 62 8 8.0 16.0 0.00 0.00 0.00 82 1019.0
20210726052903 62 35 12.0 16.0 0.00 0.00 0.00 82 1019.1
20210726052403 62 357 1.0 16.0 0.00 0.00 0.00 82 1019.0
20210726051902 62 35 8.0 16.0 0.00 0.00 0.00 83 1019.1
20210726051402 62 14 9.0 20.0 0.00 0.00 0.00 83 1019.0
20210726050903 62 40 9.0 20.0 0.00 0.00 0.00 83 1018.9
20210726050403 61 36 8.0 20.0 0.00 0.00 0.00 83 1018.9
20210726045903 62 32 0.0 21.0 0.00 0.00 0.00 83 1018.9
20210726045403 61 357 9.0 21.0 0.00 0.00 0.00 84 1018.9
20210726044903 61 16 11.0 21.0 0.00 0.00 0.00 84 1018.8
20210726044403 61 26 14.0 21.0 0.00 0.00 0.00 84 1018.8
20210726043903 61 7 10.0 21.0 0.00 0.00 0.00 85 1018.8
20210726043403 61 25 13.0 21.0 0.00 0.00 0.00 85 1018.7
20210726042904 61 8 14.0 20.0 0.00 0.00 0.00 86 1018.7
20210726042403 61 28 15.0 20.0 0.00 0.00 0.00 86 1018.7
20210726041903 61 12 11.0 20.0 0.00 0.00 0.00 87 1018.7
20210726041403 61 30 9.0 22.0 0.00 0.00 0.00 87 1018.6
20210726040903 61 25 13.0 22.0 0.00 0.00 0.00 88 1018.6
20210726040403 61 5 8.0 22.0 0.00 0.00 0.00 89 1018.5
20210726035902 60 5 11.0 22.0 0.00 0.00 0.00 90 1018.5
20210726035404 60 7 14.0 22.0 0.00 0.00 0.00 90 1018.5
20210726034902 60 37 9.0 22.0 0.00 0.00 0.00 90 1018.0
20210726034402 60 25 15.0 24.0 0.00 0.00 0.00 89 1018.1
20210726033903 60 36 12.0 24.0 0.00 0.00 0.00 89 1018.1
20210726033403 60 15 12.0 24.0 0.00 0.00 0.00 89 1018.2
20210726032903 60 23 13.0 26.0 0.00 0.00 0.00 88 1018.1
20210726032403 60 32 12.0 26.0 0.00 0.00 0.00 88 1018.1
20210726031902 60 42 13.0 26.0 0.00 0.00 0.00 87 1018.1
20210726031402 61 26 14.0 27.0 0.00 0.00 0.00 87 1018.1
20210726030902 61 29 16.0 27.0 0.00 0.00 0.00 86 1018.0
20210726030402 61 14 1.0 27.0 0.00 0.00 0.00 85 1017.9
20210726025902 61 29 16.0 26.0 0.00 0.00 0.00 84 1017.9
20210726025403 61 2 14.0 26.0 0.00 0.00 0.00 83 1017.9
20210726024903 62 22 16.0 30.0 0.00 0.00 0.00 83 1017.8
20210726024403 62 8 14.0 30.0 0.00 0.00 0.00 83 1017.8
20210726023902 62 26 16.0 30.0 0.00 0.00 0.00 82 1017.8
20210726023402 62 347 17.0 29.0 0.00 0.00 0.00 82 1017.8
20210726022902 63 19 16.0 27.0 0.00 0.00 0.00 81 1017.7
20210726022402 63 23 16.0 29.0 0.00 0.00 0.00 81 1017.8
20210726021903 63 29 11.0 29.0 0.00 0.00 0.00 81 1017.8
20210726021403 63 8 17.0 29.0 0.00 0.00 0.00 80 1017.7
20210726020902 63 15 16.0 31.0 0.00 0.00 0.00 79 1017.8
20210726020402 63 26 20.0 31.0 0.00 0.00 0.00 79 1017.7
20210726015902 63 29 21.0 31.0 0.00 0.00 0.00 79 1017.9
20210726015403 63 16 23.0 28.0 0.00 0.00 0.00 78 1017.9
20210726014902 63 28 20.0 27.0 0.00 0.00 0.00 78 1017.8
20210726013402 63 12 18.0 31.0 0.00 0.00 0.00 78 1017.8
20210726012902 63 354 22.0 29.0 0.00 0.00 0.00 77 1017.9